Location: Newark
(46.3167°N, 0.4667°W)
Time: 20:16:48
(UTC+00:00)

ISS - Visible Passes

Search period start: 23 October 2019 00:00
Search period end: 02 November 2019 00:00
Orbit: 411 x 421 km, 51.6° (Epoch: 24 October)

Date Brightness Start Highest point End Pass type
(mag) Time Alt. Az. Time Alt. Az. Time Alt. Az.
23 Oct -0.7 05:36:33 10° SSE 05:38:22 14° SE 05:40:10 10° E visible
25 Oct -2.0 05:34:32 10° SSW 05:37:35 32° SE 05:40:39 10° ENE visible
26 Oct -1.4 04:46:45 11° S 04:49:08 20° SE 04:51:43 10° E visible
27 Oct -0.8 04:00:47 13° SE 04:00:47 13° SE 04:02:19 10° ESE visible
27 Oct -3.6 05:33:43 11° SW 05:36:57 75° SSE 05:40:19 10° ENE visible
28 Oct -3.0 04:47:33 38° S 04:48:22 47° SE 04:51:38 10° ENE visible
29 Oct -1.2 04:01:16 21° E 04:01:16 21° E 04:02:50 10° ENE visible
29 Oct -3.5 05:34:10 18° W 05:36:26 56° NNW 05:39:46 10° ENE visible
30 Oct -3.9 04:47:45 79° NNW 04:47:45 79° NNW 04:51:07 10° ENE visible
31 Oct -1.1 04:01:14 20° ENE 04:01:14 20° ENE 04:02:27 10° ENE visible
31 Oct -2.9 05:34:08 20° WNW 05:36:01 37° NNW 05:39:11 10° ENE visible
01 Nov -3.0 04:47:33 43° N 04:47:33 43° N 04:50:30 10° ENE visible
